This is the latest recevied weather packets stored in our database for station/object HB9TJR-3. If no packets are shown the sender has not sent any weather packets the latest 10 day(s).
| Time | Temp. | Humidity | Pressure | Rain* | Wind** | Luminosity | Snow |
|---|---|---|---|---|---|---|---|
| 1777648294 | 14.44° C | 66% | 872.5 hPa | 0 mm | - | - | - |
| 1777647336 | 13.89° C | 66% | 872.6 hPa | 0 mm | - | - | - |
| 1777645416 | 14.44° C | 67% | 872.8 hPa | 0 mm | - | - | - |
| 1777644456 | 14.44° C | 65% | 872.8 hPa | 0 mm | - | - | - |
| 1777643494 | 14.44° C | 66% | 872.8 hPa | 0 mm | - | - | - |
| 1777642535 | 14.44° C | 65% | 873 hPa | 0 mm | - | - | - |
| 1777641576 | 14.44° C | 65% | 873 hPa | 0 mm | - | - | - |
| 1777640616 | 14.44° C | 69% | 873.1 hPa | 0 mm | - | - | - |
| 1777639654 | 14.44° C | 68% | 873.2 hPa | 0 mm | - | - | - |
| 1777638694 | 14.44° C | 70% | 873.3 hPa | 0 mm | - | - | - |
| 1777636774 | 13.89° C | 70% | 873.3 hPa | 0 mm | - | - | - |
| 1777634854 | 13.89° C | 74% | 873.4 hPa | 0 mm | - | - | - |
| 1777633896 | 13.89° C | 73% | 873.4 hPa | 0 mm | - | - | - |
| 1777632936 | 14.44° C | 68% | 873.4 hPa | 0 mm | - | - | - |
| 1777631974 | 14.44° C | 75% | 873.5 hPa | 0 mm | - | - | - |
| 1777630055 | 13.89° C | 74% | 873.4 hPa | 0 mm | - | - | - |
| 1777628134 | 13.89° C | 71% | 873.3 hPa | 0 mm | - | - | - |
| 1777627178 | 13.89° C | 67% | 873.1 hPa | 0 mm | - | - | - |
| 1777626219 | 13.33° C | 68% | 873 hPa | 0 mm | - | - | - |
| 1777625254 | 13.33° C | 65% | 873 hPa | 0 mm | - | - | - |
| 1777624295 | 13.33° C | 66% | 872.9 hPa | 0 mm | - | - | - |
| 1777623334 | 12.78° C | 67% | 872.9 hPa | 0 mm | - | - | - |
| 1777621416 | 12.78° C | 64% | 872.7 hPa | 0 mm | - | - | - |
| 1777620455 | 12.78° C | 64% | 872.6 hPa | 0 mm | - | - | - |
| 1777619494 | 12.78° C | 64% | 872.5 hPa | 0 mm | - | - | - |
* Rain latest hour (hover to see other rain measurements)
** Current wind speed in m/s (hover to see current wind gust speed)